,,Stat6,,Stat2,,Stat8,,Stat9,,Stat10,,Wind1,,Wind1,
time,status,PA1M_AVG,status,PR1M_SUM,status,RH1M_AVG,status,SR1M_AVG,status,TA1M_AVG,status,W1dAve1m,status,W1sAve1m,
2008-01-11, 00:00:00,VALID,918.569,VALID,0,VALID,100,VALID,-0.0339617,VALID,18.8259,VALID,48,VALID,0,
2008-01-11, 00:01:00,VALID,918.556,VALID,0,VALID,100,VALID,-0.0339617,VALID,18.7902,VALID,49,VALID,0,
2008-01-11, 00:02:01,VALID,918.545,VALID,0,VALID,100,VALID,-0.0679233,VALID,18.7351,VALID,49,VALID,0,
2008-01-11, 00:03:00,VALID,918.523,VALID,0,VALID,100,VALID,-0.0679233,VALID,18.6964,VALID,49,VALID,0,
2008-01-11, 00:04:01,VALID,918.518,VALID,0,VALID,100,VALID,-0.0339617,VALID,18.6737,VALID,56,VALID,0,
2008-01-11, 00:05:00,VALID,918.485,VALID,0,VALID,100,VALID,-0.0169808,VALID,18.6343,VALID,116,VALID,0,
2008-01-11, 00:06:00,VALID,918.461,VALID,0,VALID,100,VALID,-0.0169808,VALID,18.6251,VALID,159,VALID,0.366787,
2008-01-11, 00:07:01,VALID,918.428,VALID,0,VALID,100,VALID,-0.0509425,VALID,18.6114,VALID,179,VALID,0.477412,
2008-01-11, 00:08:00,VALID,918.398,VALID,0,VALID,100,VALID,-0.0679233,VALID,18.6146,VALID,179,VALID,0.184961,
2008-01-11, 00:09:01,VALID,918.379,VALID,0,VALID,100,VALID,-0.0509425,VALID,18.6146,VALID,179,VALID,0,
2008-01-11, 00:10:01,VALID,918.36,VALID,0,VALID,100,VALID,-0.0339617,VALID,18.6181,VALID,179,VALID,0,
2008-01-11, 00:11:00,VALID,918.328,VALID,0,VALID,100,VALID,-0.0339617,VALID,18.6278,VALID,179,VALID,0,
2008-01-11, 00:12:00,VALID,918.322,VALID,0,VALID,100,VALID,0,VALID,18.6274,VALID,179,VALID,0,
2008-01-11, 00:13:00,VALID,918.309,VALID,0,VALID,100,VALID,-0.0509425,VALID,18.6081,VALID,179,VALID,0,
2008-01-11, 00:14:00,VALID,918.315,VALID,0,VALID,100,VALID,-0.0509425,VALID,18.6118,VALID,179,VALID,0,
2008-01-11, 00:15:00,VALID,918.312,VALID,0,VALID,100,VALID,-0.0339617,VALID,18.6051,VALID,179,VALID,0,
2008-01-11, 00:16:00,VALID,918.307,VALID,0,VALID,100,VALID,-0.0509425,VALID,18.6253,VALID,179,VALID,0,
2008-01-11, 00:17:01,VALID,918.306,VALID,0,VALID,100,VALID,-0.0679233,VALID,18.6251,VALID,179,VALID,0,
2008-01-11, 00:18:00,VALID,918.308,VALID,0,VALID,100,VALID,-0.0339617,VALID,18.6406,VALID,179,VALID,0,
2008-01-11, 00:19:00,VALID,918.316,VALID,0,VALID,100,VALID,-0.0169808,VALID,18.6635,VALID,179,VALID,0,
2008-01-11, 00:20:00,VALID,918.322,VALID,0,VALID,100,VALID,-0.0679233,VALID,18.6762,VALID,179,VALID,0,
2008-01-11, 00:21:01,VALID,918.324,VALID,0,VALID,100,VALID,-0.0509425,VALID,18.6605,VALID,179,VALID,0,
2008-01-11, 00:22:00,VALID,918.338,VALID,0,VALID,100,VALID,0,VALID,18.68,VALID,179,VALID,0.00744048,
2008-01-11, 00:23:01,VALID,918.34,VALID,0,VALID,100,VALID,-0.0339617,VALID,18.7281,VALID,179,VALID,0,
2008-01-11, 00:24:00,VALID,918.322,VALID,0,VALID,100,VALID,-0.0169808,VALID,18.7965,VALID,179,VALID,0,
2008-01-11, 00:25:00,VALID,918.312,VALID,0,VALID,100,VALID,-0.0169808,VALID,18.8317,VALID,179,VALID,0,
2008-01-11, 00:26:00,VALID,918.289,VALID,0,VALID,100,VALID,-0.0679233,VALID,18.8584,VALID,179,VALID,0,
2008-01-11, 00:27:00,VALID,918.249,VALID,0,VALID,100,VALID,-0.0339617,VALID,18.8257,VALID,179,VALID,0.154615,
2008-01-11, 00:28:00,VALID,918.222,VALID,0,VALID,100,VALID,-0.0169808,VALID,18.7511,VALID,179,VALID,0.00225694,
2008-01-11, 00:29:00,VALID,918.201,VALID,0,VALID,100,VALID,-0.0169808,VALID,18.6959,VALID,179,VALID,0,
2008-01-11, 00:30:00,VALID,918.192,VALID,0,VALID,100,VALID,-0.0169808,VALID,18.6698,VALID,179,VALID,0,
2008-01-11, 00:31:00,VALID,918.199,VALID,0,VALID,100,VALID,-0.0169808,VALID,18.6698,VALID,179,VALID,0,
2008-01-11, 00:32:01,VALID,918.209,VALID,0,VALID,100,VALID,-0.0169808,VALID,18.6695,VALID,179,VALID,0,
2008-01-11, 00:33:01,VALID,918.222,VALID,0,VALID,100,VALID,0,VALID,18.6538,VALID,179,VALID,0,
2008-01-11, 00:34:01,VALID,918.231,VALID,0,VALID,100,VALID,-0.0339617,VALID,18.6149,VALID,167,VALID,0.0173399,
2008-01-11, 00:35:01,VALID,918.25,VALID,0,VALID,100,VALID,0,VALID,18.6079,VALID,158,VALID,1.10657,
2008-01-11, 00:36:01,VALID,918.275,VALID,0,VALID,100,VALID,-0.0169808,VALID,18.6438,VALID,158,VALID,0.883984,
2008-01-11, 00:37:00,VALID,918.291,VALID,0,VALID,100,VALID,-0.0169808,VALID,18.6573,VALID,150,VALID,0.493278,
2008-01-11, 00:38:01,VALID,918.301,VALID,0,VALID,100,VALID,-0.0339617,VALID,18.6406,VALID,150,VALID,0.316106,
2008-01-11, 00:39:00,VALID,918.31,VALID,0,VALID,100,VALID,0,VALID,18.6406,VALID,150,VALID,0.145597,
2008-01-11, 00:40:01,VALID,918.317,VALID,0,VALID,100,VALID,-0.0169808,VALID,18.6505,VALID,150,VALID,0.0661204,
2008-01-11, 00:41:01,VALID,918.316,VALID,0,VALID,100,VALID,0,VALID,18.6665,VALID,150,VALID,0,
2008-01-11, 00:42:01,VALID,918.304,VALID,0,VALID,100,VALID,0,VALID,18.6857,VALID,150,VALID,0,
2008-01-11, 00:43:01,VALID,918.291,VALID,0,VALID,100,VALID,0,VALID,18.7119,VALID,90,VALID,0.170603,
2008-01-11, 00:44:01,VALID,918.27,VALID,0,VALID,100,VALID,0,VALID,18.7054,VALID,67,VALID,0.168384,
2008-01-11, 00:45:01,VALID,918.244,VALID,0,VALID,100,VALID,0,VALID,18.6897,VALID,67,VALID,0,
2008-01-11, 00:46:01,VALID,918.233,VALID,0,VALID,100,VALID,-0.0339617,VALID,18.6503,VALID,67,VALID,0.524826,
2008-01-11, 00:47:00,VALID,918.201,VALID,0,VALID,100,VALID,-0.0339617,VALID,18.5887,VALID,68,VALID,0.855183,
2008-01-11, 00:48:00,VALID,918.176,VALID,0,VALID,100,VALID,-0.0509425,VALID,18.5827,VALID,78,VALID,0.85831,
2008-01-11, 00:49:00,VALID,918.151,VALID,0,VALID,100,VALID,-0.0339617,VALID,18.5502,VALID,84,VALID,0.897485,
2008-01-11, 00:50:00,VALID,918.11,VALID,0,VALID,100,VALID,-0.0169808,VALID,18.5442,VALID,86,VALID,0.994727,
2008-01-11, 00:51:00,VALID,918.086,VALID,0,VALID,100,VALID,-0.0169808,VALID,18.5171,VALID,87,VALID,1.01953,
2008-01-11, 00:52:00,VALID,918.065,VALID,0,VALID,100,VALID,-0.0169808,VALID,18.5048,VALID,84,VALID,0.93641,
2008-01-11, 00:53:00,VALID,918.035,VALID,0,VALID,100,VALID,0,VALID,18.4946,VALID,78,VALID,0.932106,
2008-01-11, 00:54:00,VALID,918.025,VALID,0,VALID,100,VALID,-0.0339617,VALID,18.4687,VALID,79,VALID,1.08061,
2008-01-11, 00:55:00,VALID,918.01,VALID,0,VALID,100,VALID,0,VALID,18.4749,VALID,94,VALID,1.36833,
2008-01-11, 00:56:00,VALID,918.008,VALID,0,VALID,100,VALID,0,VALID,18.5115,VALID,111,VALID,1.06399,
2008-01-11, 00:57:00,VALID,918.022,VALID,0,VALID,100,VALID,-0.0339617,VALID,18.4784,VALID,117,VALID,0.775391,
2008-01-11, 00:58:00,VALID,918.034,VALID,0,VALID,100,VALID,-0.0169808,VALID,18.4362,VALID,113,VALID,0.214748,
2008-01-11, 00:59:00,VALID,918.041,VALID,0,VALID,100,VALID,-0.0169808,VALID,18.414,VALID,122,VALID,0,
2008-01-11, 01:00:00,VALID,918.06,VALID,0,VALID,100,VALID,-0.0169808,VALID,18.3841,VALID,121,VALID,0,
2008-01-11, 01:01:00,VALID,918.079,VALID,0,VALID,100,VALID,0,VALID,18.3389,VALID,109,VALID,0,
2008-01-11, 01:02:00,VALID,918.09,VALID,0,VALID,100,VALID,0,VALID,18.31,VALID,109,VALID,0,
2008-01-11, 01:03:00,VALID,918.097,VALID,0,VALID,100,VALID,-0.0339617,VALID,18.2843,VALID,90,VALID,0,
2008-01-11, 01:04:00,VALID,918.107,VALID,0,VALID,100,VALID,-0.0339617,VALID,18.2706,VALID,77,VALID,0,
2008-01-11, 01:05:00,VALID,918.111,VALID,0,VALID,100,VALID,-0.0679233,VALID,18.2752,VALID,74,VALID,0,
2008-01-11, 01:06:00,VALID,918.1,VALID,0,VALID,100,VALID,-0.0509425,VALID,18.2843,VALID,71,VALID,0,
2008-01-11, 01:07:00,VALID,918.075,VALID,0,VALID,100,VALID,-0.0339617,VALID,18.2935,VALID,71,VALID,0,
2008-01-11, 01:08:00,VALID,918.029,VALID,0,VALID,100,VALID,-0.0679233,VALID,18.3102,VALID,71,VALID,0,
2008-01-11, 01:09:00,VALID,917.989,VALID,0,VALID,100,VALID,0,VALID,18.313,VALID,71,VALID,0,
2008-01-11, 01:10:00,VALID,917.952,VALID,0,VALID,100,VALID,-0.0169808,VALID,18.3197,VALID,71,VALID,0,
2008-01-11, 01:11:00,VALID,917.924,VALID,0,VALID,100,VALID,-0.0849042,VALID,18.3267,VALID,71,VALID,0,
2008-01-11, 01:12:00,VALID,917.894,VALID,0,VALID,100,VALID,-0.0339617,VALID,18.3327,VALID,71,VALID,0,
2008-01-11, 01:13:00,VALID,917.879,VALID,0,VALID,100,VALID,-0.0339617,VALID,18.3355,VALID,71,VALID,0,
2008-01-11, 01:14:00,VALID,917.865,VALID,0,VALID,100,VALID,0.0169808,VALID,18.3389,VALID,72,VALID,0,
2008-01-11, 01:15:00,VALID,917.862,VALID,0,VALID,100,VALID,-0.0169808,VALID,18.3294,VALID,147,VALID,0,
2008-01-11, 01:16:00,VALID,917.865,VALID,0,VALID,100,VALID,-0.0679233,VALID,18.313,VALID,169,VALID,0,
2008-01-11, 01:17:00,VALID,917.872,VALID,0,VALID,100,VALID,-0.0339617,VALID,18.3067,VALID,169,VALID,0,
2008-01-11, 01:18:00,VALID,917.873,VALID,0,VALID,100,VALID,-0.0849042,VALID,18.3169,VALID,169,VALID,0,
2008-01-11, 01:19:00,VALID,917.854,VALID,0,VALID,100,VALID,-0.0509425,VALID,18.3095,VALID,169,VALID,0,
2008-01-11, 01:20:00,VALID,917.839,VALID,0,VALID,100,VALID,-0.0169808,VALID,18.3329,VALID,169,VALID,0,
2008-01-11, 01:21:00,VALID,917.804,VALID,0,VALID,100,VALID,-0.0169808,VALID,18.3619,VALID,169,VALID,0,
2008-01-11, 01:22:00,VALID,917.794,VALID,0,VALID,100,VALID,-0.0169808,VALID,18.3973,VALID,169,VALID,0,
2008-01-11, 01:23:00,VALID,917.78,VALID,0,VALID,100,VALID,0,VALID,18.43,VALID,169,VALID,0,
2008-01-11, 01:24:00,VALID,917.764,VALID,0,VALID,100,VALID,0,VALID,18.4717,VALID,196,VALID,0,
2008-01-11, 01:25:00,VALID,917.724,VALID,0,VALID,100,VALID,-0.0509425,VALID,18.5273,VALID,235,VALID,0,
2008-01-11, 01:26:00,VALID,917.709,VALID,0,VALID,100,VALID,-0.0509425,VALID,18.5824,VALID,235,VALID,0,
2008-01-11, 01:27:00,VALID,917.711,VALID,0,VALID,100,VALID,-0.0339617,VALID,18.6243,VALID,249,VALID,0,
2008-01-11, 01:28:00,VALID,917.7,VALID,0,VALID,100,VALID,-0.0849042,VALID,18.648,VALID,331,VALID,0,
2008-01-11, 01:29:00,VALID,917.684,VALID,0,VALID,100,VALID,-0.0849042,VALID,18.6118,VALID,331,VALID,0,
2008-01-11, 01:30:00,VALID,917.688,VALID,0,VALID,100,VALID,-0.0509425,VALID,18.6019,VALID,331,VALID,0,
2008-01-11, 01:31:00,VALID,917.676,VALID,0,VALID,100,VALID,-0.0509425,VALID,18.5989,VALID,331,VALID,0,
2008-01-11, 01:32:00,VALID,917.677,VALID,0,VALID,100,VALID,-0.0679233,VALID,18.5632,VALID,331,VALID,0,
2008-01-11, 01:33:00,VALID,917.651,VALID,0,VALID,100,VALID,-0.0509425,VALID,18.5247,VALID,331,VALID,0,
2008-01-11, 01:34:00,VALID,917.645,VALID,0,VALID,100,VALID,-0.0849042,VALID,18.4494,VALID,331,VALID,0,
2008-01-11, 01:35:00,VALID,917.633,VALID,0,VALID,100,VALID,-0.0679233,VALID,18.3881,VALID,331,VALID,0,
2008-01-11, 01:36:00,VALID,917.617,VALID,0,VALID,100,VALID,-0.0849042,VALID,18.3848,VALID,331,VALID,0,
2008-01-11, 01:37:00,VALID,917.622,VALID,0,VALID,100,VALID,-0.0849042,VALID,18.4071,VALID,331,VALID,0,
2008-01-11, 01:38:00,VALID,917.618,VALID,0,VALID,100,VALID,-0.0679233,VALID,18.4203,VALID,331,VALID,0,
2008-01-11, 01:39:00,VALID,917.626,VALID,0,VALID,100,VALID,-0.0509425,VALID,18.427,VALID,331,VALID,0,
2008-01-11, 01:40:00,VALID,917.649,VALID,0,VALID,100,VALID,-0.0339617,VALID,18.3973,VALID,331,VALID,0,
2008-01-11, 01:41:00,VALID,917.681,VALID,0,VALID,100,VALID,-0.0679233,VALID,18.3908,VALID,331,VALID,0,
2008-01-11, 01:42:00,VALID,917.694,VALID,0,VALID,100,VALID,-0.0849042,VALID,18.4015,VALID,331,VALID,0,
2008-01-11, 01:43:00,VALID,917.705,VALID,0,VALID,100,VALID,-0.0849042,VALID,18.404,VALID,331,VALID,0,
2008-01-11, 01:44:00,VALID,917.724,VALID,0,VALID,100,VALID,-0.0849042,VALID,18.4337,VALID,331,VALID,0,
2008-01-11, 01:45:00,VALID,917.723,VALID,0,VALID,100,VALID,-0.0679233,VALID,18.4339,VALID,331,VALID,0,
2008-01-11, 01:46:00,VALID,917.714,VALID,0,VALID,100,VALID,-0.101885,VALID,18.395,VALID,331,VALID,0,
2008-01-11, 01:47:00,VALID,917.701,VALID,0,VALID,100,VALID,-0.0849042,VALID,18.3883,VALID,331,VALID,0,
2008-01-11, 01:48:00,VALID,917.691,VALID,0,VALID,100,VALID,-0.101885,VALID,18.3788,VALID,331,VALID,0,
2008-01-11, 01:49:00,VALID,917.684,VALID,0,VALID,100,VALID,-0.0679233,VALID,18.3396,VALID,331,VALID,0,
2008-01-11, 01:50:00,VALID,917.679,VALID,0,VALID,100,VALID,-0.0849042,VALID,18.281,VALID,331,VALID,0,
2008-01-11, 01:51:00,VALID,917.675,VALID,0,VALID,100,VALID,-0.0679233,VALID,18.2192,VALID,331,VALID,0,
2008-01-11, 01:52:00,VALID,917.662,VALID,0,VALID,100,VALID,-0.0679233,VALID,18.1643,VALID,331,VALID,0,
2008-01-11, 01:53:00,VALID,917.651,VALID,0,VALID,100,VALID,-0.0679233,VALID,18.1414,VALID,331,VALID,0,
2008-01-11, 01:54:00,VALID,917.629,VALID,0,VALID,100,VALID,-0.101885,VALID,18.1383,VALID,331,VALID,0,
2008-01-11, 01:55:00,VALID,917.625,VALID,0,VALID,100,VALID,-0.101885,VALID,18.1548,VALID,331,VALID,0,
2008-01-11, 01:56:00,VALID,917.615,VALID,0,VALID,100,VALID,-0.0849042,VALID,18.1604,VALID,331,VALID,0,
2008-01-11, 01:57:00,VALID,917.626,VALID,0,VALID,100,VALID,-0.0849042,VALID,18.187,VALID,331,VALID,0,
2008-01-11, 01:58:00,VALID,917.62,VALID,0,VALID,100,VALID,-0.101885,VALID,18.2069,VALID,331,VALID,0,
2008-01-11, 01:59:00,VALID,917.603,VALID,0,VALID,100,VALID,-0.0509425,VALID,18.1902,VALID,331,VALID,0,
2008-01-11, 02:00:00,VALID,917.597,VALID,0,VALID,100,VALID,-0.0679233,VALID,18.1773,VALID,200,VALID,0,
2008-01-11, 02:01:00,VALID,917.587,VALID,0,VALID,100,VALID,-0.0849042,VALID,18.1641,VALID,189,VALID,0,
2008-01-11, 02:02:00,VALID,917.576,VALID,0,VALID,100,VALID,-0.0679233,VALID,18.1349,VALID,189,VALID,0,
2008-01-11, 02:03:00,VALID,917.563,VALID,0,VALID,100,VALID,-0.0679233,VALID,18.1451,VALID,189,VALID,0,
2008-01-11, 02:04:00,VALID,917.543,VALID,0,VALID,100,VALID,-0.0849042,VALID,18.1645,VALID,189,VALID,0,
2008-01-11, 02:05:00,VALID,917.54,VALID,0,VALID,100,VALID,-0.0679233,VALID,18.1773,VALID,189,VALID,0,
2008-01-11, 02:06:00,VALID,917.537,VALID,0,VALID,100,VALID,-0.0679233,VALID,18.2067,VALID,189,VALID,0,
2008-01-11, 02:07:00,VALID,917.533,VALID,0,VALID,100,VALID,-0.0849042,VALID,18.2157,VALID,189,VALID,0,
2008-01-11, 02:08:00,VALID,917.536,VALID,0,VALID,100,VALID,-0.0849042,VALID,18.2616,VALID,189,VALID,0,
2008-01-11, 02:09:00,VALID,917.561,VALID,0,VALID,100,VALID,-0.101885,VALID,18.262,VALID,189,VALID,0,
2008-01-11, 02:10:00,VALID,917.574,VALID,0,VALID,100,VALID,-0.0509425,VALID,18.2454,VALID,189,VALID,0,
2008-01-11, 02:11:00,VALID,917.588,VALID,0,VALID,100,VALID,-0.101885,VALID,18.174,VALID,189,VALID,0,
2008-01-11, 02:12:00,VALID,917.593,VALID,0,VALID,100,VALID,-0.0509425,VALID,18.1344,VALID,189,VALID,0,
2008-01-11, 02:13:00,VALID,917.584,VALID,0,VALID,100,VALID,-0.0169808,VALID,18.1733,VALID,189,VALID,0,
2008-01-11, 02:14:00,VALID,917.589,VALID,0,VALID,100,VALID,-0.0339617,VALID,18.196,VALID,189,VALID,0,
2008-01-11, 02:15:00,VALID,917.598,VALID,0,VALID,100,VALID,-0.0509425,VALID,18.209,VALID,124,VALID,0,
2008-01-11, 02:16:00,VALID,917.593,VALID,0,VALID,100,VALID,-0.0169808,VALID,18.2058,VALID,104,VALID,0,
2008-01-11, 02:17:00,VALID,917.578,VALID,0,VALID,100,VALID,-0.0169808,VALID,18.2153,VALID,104,VALID,0,
2008-01-11, 02:18:00,VALID,917.584,VALID,0,VALID,100,VALID,-0.0339617,VALID,18.2252,VALID,104,VALID,0,
2008-01-11, 02:19:00,VALID,917.57,VALID,0,VALID,100,VALID,-0.0339617,VALID,18.2285,VALID,104,VALID,0,
2008-01-11, 02:20:00,VALID,917.57,VALID,0,VALID,100,VALID,-0.0849042,VALID,18.2157,VALID,104,VALID,0,
2008-01-11, 02:21:00,VALID,917.554,VALID,0,VALID,100,VALID,-0.0509425,VALID,18.2058,VALID,104,VALID,0,
2008-01-11, 02:22:00,VALID,917.549,VALID,0,VALID,100,VALID,-0.0509425,VALID,18.2222,VALID,104,VALID,0,
2008-01-11, 02:23:00,VALID,917.535,VALID,0,VALID,100,VALID,-0.0169808,VALID,18.2349,VALID,104,VALID,0,
2008-01-11, 02:24:00,VALID,917.514,VALID,0,VALID,100,VALID,0,VALID,18.2349,VALID,104,VALID,0,
2008-01-11, 02:25:00,VALID,917.497,VALID,0,VALID,100,VALID,-0.0169808,VALID,18.2382,VALID,104,VALID,0,
2008-01-11, 02:26:00,VALID,917.477,VALID,0,VALID,100,VALID,0,VALID,18.2609,VALID,104,VALID,0,
2008-01-11, 02:27:00,VALID,917.453,VALID,0,VALID,100,VALID,-0.0509425,VALID,18.2778,VALID,104,VALID,0,
2008-01-11, 02:28:00,VALID,917.439,VALID,0,VALID,100,VALID,-0.101885,VALID,18.3109,VALID,104,VALID,0,
2008-01-11, 02:29:00,VALID,917.422,VALID,0,VALID,100,VALID,-0.101885,VALID,18.3109,VALID,104,VALID,0,
2008-01-11, 02:30:00,VALID,917.42,VALID,0,VALID,100,VALID,-0.135847,VALID,18.2752,VALID,104,VALID,0,
2008-01-11, 02:31:00,VALID,917.416,VALID,0,VALID,100,VALID,-0.101885,VALID,18.2298,VALID,104,VALID,0,
2008-01-11, 02:32:00,VALID,917.423,VALID,0,VALID,100,VALID,-0.118866,VALID,18.2333,VALID,104,VALID,0,
2008-01-11, 02:33:00,VALID,917.445,VALID,0,VALID,100,VALID,-0.135847,VALID,18.1877,VALID,104,VALID,0,
2008-01-11, 02:34:00,VALID,917.455,VALID,0,VALID,100,VALID,-0.135847,VALID,18.1555,VALID,104,VALID,0,
2008-01-11, 02:35:00,VALID,917.484,VALID,0,VALID,100,VALID,-0.135847,VALID,18.168,VALID,104,VALID,0,
2008-01-11, 02:36:00,VALID,917.48,VALID,0,VALID,100,VALID,-0.135847,VALID,18.1939,VALID,104,VALID,0,
2008-01-11, 02:37:00,VALID,917.473,VALID,0,VALID,100,VALID,-0.118866,VALID,18.2104,VALID,104,VALID,0,
2008-01-11, 02:38:00,VALID,917.47,VALID,0,VALID,100,VALID,-0.135847,VALID,18.2331,VALID,104,VALID,0,
2008-01-11, 02:39:00,VALID,917.451,VALID,0,VALID,100,VALID,-0.101885,VALID,18.2688,VALID,104,VALID,0,
2008-01-11, 02:40:00,VALID,917.422,VALID,0,VALID,100,VALID,-0.135847,VALID,18.2817,VALID,104,VALID,0,
2008-01-11, 02:41:00,VALID,917.391,VALID,0,VALID,100,VALID,-0.118866,VALID,18.3111,VALID,104,VALID,0,
2008-01-11, 02:42:00,VALID,917.379,VALID,0,VALID,100,VALID,-0.0509425,VALID,18.3362,VALID,104,VALID,0,
2008-01-11, 02:43:00,VALID,917.355,VALID,0,VALID,100,VALID,0,VALID,18.3225,VALID,104,VALID,0,
2008-01-11, 02:44:00,VALID,917.33,VALID,0,VALID,100,VALID,-0.0339617,VALID,18.2963,VALID,104,VALID,0,
2008-01-11, 02:45:00,VALID,917.317,VALID,0,VALID,100,VALID,-0.0339617,VALID,18.2641,VALID,104,VALID,0,
2008-01-11, 02:46:00,VALID,917.31,VALID,0,VALID,100,VALID,0,VALID,18.2317,VALID,104,VALID,0,
2008-01-11, 02:47:00,VALID,917.322,VALID,0,VALID,100,VALID,0,VALID,18.2349,VALID,104,VALID,0,
2008-01-11, 02:48:00,VALID,917.296,VALID,0,VALID,100,VALID,0.0169808,VALID,18.2739,VALID,104,VALID,0,
2008-01-11, 02:49:00,VALID,917.307,VALID,0,VALID,100,VALID,0.0169808,VALID,18.2706,VALID,104,VALID,0,
2008-01-11, 02:50:00,VALID,917.299,VALID,0,VALID,100,VALID,0,VALID,18.2414,VALID,104,VALID,0,
2008-01-11, 02:51:00,VALID,917.287,VALID,0,VALID,100,VALID,0,VALID,18.2215,VALID,136,VALID,0,
2008-01-11, 02:52:00,VALID,917.271,VALID,0,VALID,100,VALID,0,VALID,18.2412,VALID,158,VALID,0.117188,
2008-01-11, 02:53:00,VALID,917.256,VALID,0,VALID,100,VALID,-0.0339617,VALID,18.2771,VALID,170,VALID,0.839571,
2008-01-11, 02:54:00,VALID,917.239,VALID,0,VALID,100,VALID,-0.0169808,VALID,18.3225,VALID,169,VALID,0.652439,
2008-01-11, 02:55:00,VALID,917.221,VALID,0,VALID,100,VALID,-0.0169808,VALID,18.3612,VALID,169,VALID,0.806424,
2008-01-11, 02:56:00,VALID,917.225,VALID,0,VALID,100,VALID,-0.0169808,VALID,18.4003,VALID,157,VALID,0.829427,
2008-01-11, 02:57:00,VALID,917.212,VALID,0,VALID,100,VALID,-0.0169808,VALID,18.4068,VALID,155,VALID,0.863372,
2008-01-11, 02:58:00,VALID,917.204,VALID,0,VALID,100,VALID,0,VALID,18.4131,VALID,156,VALID,0.745793,
2008-01-11, 02:59:00,VALID,917.215,VALID,0,VALID,100,VALID,0,VALID,18.4068,VALID,154,VALID,0.269271,
2008-01-11, 03:00:00,VALID,917.211,VALID,0,VALID,100,VALID,-0.0339617,VALID,18.4036,VALID,154,VALID,0.344638,
2008-01-11, 03:01:00,VALID,917.2,VALID,0,VALID,100,VALID,-0.0339617,VALID,18.401,VALID,154,VALID,0.12367,
2008-01-11, 03:02:00,VALID,917.189,VALID,0,VALID,100,VALID,-0.0509425,VALID,18.3876,VALID,154,VALID,0,
2008-01-11, 03:03:00,VALID,917.171,VALID,0,VALID,100,VALID,-0.0679233,VALID,18.3616,VALID,154,VALID,0,
2008-01-11, 03:04:00,VALID,917.148,VALID,0,VALID,100,VALID,-0.0339617,VALID,18.3292,VALID,154,VALID,0,
2008-01-11, 03:05:00,VALID,917.117,VALID,0,VALID,100,VALID,-0.0849042,VALID,18.3457,VALID,154,VALID,0,
2008-01-11, 03:06:00,VALID,917.12,VALID,0,VALID,100,VALID,-0.0169808,VALID,18.3746,VALID,154,VALID,0,
2008-01-11, 03:07:00,VALID,917.098,VALID,0,VALID,100,VALID,-0.0339617,VALID,18.3973,VALID,154,VALID,0,
2008-01-11, 03:08:00,VALID,917.092,VALID,0,VALID,100,VALID,-0.0169808,VALID,18.3679,VALID,154,VALID,0,
2008-01-11, 03:09:00,VALID,917.077,VALID,0,VALID,100,VALID,-0.0339617,VALID,18.342,VALID,154,VALID,0,
2008-01-11, 03:10:00,VALID,917.063,VALID,0,VALID,100,VALID,-0.0339617,VALID,18.3389,VALID,154,VALID,0,
2008-01-11, 03:11:00,VALID,917.05,VALID,0,VALID,100,VALID,0,VALID,18.3454,VALID,154,VALID,0,
2008-01-11, 03:12:00,VALID,917.045,VALID,0,VALID,100,VALID,-0.0339617,VALID,18.3584,VALID,154,VALID,0,
2008-01-11, 03:13:00,VALID,917.025,VALID,0,VALID,100,VALID,-0.0169808,VALID,18.3841,VALID,154,VALID,0,
2008-01-11, 03:14:00,VALID,917.017,VALID,0,VALID,100,VALID,-0.0339617,VALID,18.4003,VALID,234,VALID,0.074673,
2008-01-11, 03:15:00,VALID,917.008,VALID,0,VALID,100,VALID,-0.0339617,VALID,18.4652,VALID,325,VALID,0.539402,
2008-01-11, 03:16:00,VALID,916.984,VALID,0,VALID,100,VALID,-0.0509425,VALID,18.5173,VALID,325,VALID,0.143895,
2008-01-11, 03:17:00,VALID,917,VALID,0,VALID,100,VALID,-0.0169808,VALID,18.553,VALID,331,VALID,0,
2008-01-11, 03:18:00,VALID,916.995,VALID,0,VALID,100,VALID,-0.0679233,VALID,18.5106,VALID,331,VALID,0,
2008-01-11, 03:19:00,VALID,916.999,VALID,0,VALID,100,VALID,-0.0679233,VALID,18.5011,VALID,331,VALID,0,
2008-01-11, 03:20:00,VALID,917.005,VALID,0,VALID,100,VALID,-0.0339617,VALID,18.5041,VALID,331,VALID,0,
2008-01-11, 03:21:00,VALID,917.019,VALID,0,VALID,100,VALID,-0.0169808,VALID,18.5076,VALID,331,VALID,0,
2008-01-11, 03:22:00,VALID,917.026,VALID,0,VALID,100,VALID,-0.0339617,VALID,18.5043,VALID,331,VALID,0,
2008-01-11, 03:23:00,VALID,917.019,VALID,0,VALID,100,VALID,-0.0169808,VALID,18.5138,VALID,331,VALID,0,
2008-01-11, 03:24:00,VALID,917.016,VALID,0,VALID,100,VALID,-0.0509425,VALID,18.5268,VALID,331,VALID,0,
2008-01-11, 03:25:00,VALID,917.003,VALID,0,VALID,100,VALID,-0.0339617,VALID,18.54,VALID,331,VALID,0,
2008-01-11, 03:26:00,VALID,917.005,VALID,0,VALID,100,VALID,-0.0679233,VALID,18.5368,VALID,331,VALID,0,
2008-01-11, 03:27:00,VALID,916.996,VALID,0,VALID,100,VALID,-0.0169808,VALID,18.5428,VALID,331,VALID,0,
2008-01-11, 03:28:00,VALID,916.995,VALID,0,VALID,100,VALID,-0.0339617,VALID,18.5493,VALID,331,VALID,0,
2008-01-11, 03:29:00,VALID,916.997,VALID,0,VALID,100,VALID,-0.0339617,VALID,18.5231,VALID,331,VALID,0,
2008-01-11, 03:30:00,VALID,916.998,VALID,0,VALID,100,VALID,-0.0169808,VALID,18.5009,VALID,331,VALID,0,
2008-01-11, 03:31:00,VALID,916.986,VALID,0,VALID,100,VALID,-0.0169808,VALID,18.4877,VALID,331,VALID,0,
2008-01-11, 03:32:00,VALID,916.987,VALID,0,VALID,100,VALID,-0.0339617,VALID,18.4712,VALID,331,VALID,0,
2008-01-11, 03:33:00,VALID,916.984,VALID,0,VALID,100,VALID,-0.0339617,VALID,18.4552,VALID,331,VALID,0,
2008-01-11, 03:34:00,VALID,916.985,VALID,0,VALID,100,VALID,-0.0679233,VALID,18.4423,VALID,331,VALID,0,
2008-01-11, 03:35:00,VALID,916.982,VALID,0,VALID,100,VALID,-0.0339617,VALID,18.436,VALID,331,VALID,0,
2008-01-11, 03:36:00,VALID,916.987,VALID,0,VALID,100,VALID,-0.0679233,VALID,18.4328,VALID,331,VALID,0,
2008-01-11, 03:37:00,VALID,916.989,VALID,0,VALID,100,VALID,-0.0509425,VALID,18.4098,VALID,331,VALID,0,
2008-01-11, 03:38:00,VALID,916.983,VALID,0,VALID,100,VALID,-0.0339617,VALID,18.3742,VALID,331,VALID,0,
2008-01-11, 03:39:00,VALID,916.995,VALID,0,VALID,100,VALID,-0.0679233,VALID,18.3679,VALID,331,VALID,0,
2008-01-11, 03:40:00,VALID,917.023,VALID,0,VALID,100,VALID,-0.0509425,VALID,18.3776,VALID,331,VALID,0,
2008-01-11, 03:41:00,VALID,917.047,VALID,0,VALID,100,VALID,-0.0679233,VALID,18.3809,VALID,331,VALID,0,
2008-01-11, 03:42:00,VALID,917.079,VALID,0,VALID,100,VALID,-0.0509425,VALID,18.3322,VALID,331,VALID,0,
2008-01-11, 03:43:00,VALID,917.105,VALID,0,VALID,100,VALID,-0.0509425,VALID,18.1895,VALID,14,VALID,0,
2008-01-11, 03:44:00,VALID,917.107,VALID,0,VALID,100,VALID,-0.0509425,VALID,18.1733,VALID,86,VALID,0,
2008-01-11, 03:45:00,VALID,917.111,VALID,0,VALID,100,VALID,-0.0339617,VALID,18.1601,VALID,101,VALID,0,
2008-01-11, 03:46:00,VALID,917.126,VALID,0,VALID,100,VALID,-0.0169808,VALID,18.1731,VALID,115,VALID,0,
2008-01-11, 03:47:00,VALID,917.124,VALID,0,VALID,100,VALID,-0.0509425,VALID,18.1736,VALID,122,VALID,0,
2008-01-11, 03:48:00,VALID,917.146,VALID,0,VALID,100,VALID,-0.0339617,VALID,18.1863,VALID,132,VALID,0,
2008-01-11, 03:49:00,VALID,917.177,VALID,0,VALID,100,VALID,0,VALID,18.1993,VALID,131,VALID,0,